Change the Weather History Date:

Sunday, December 25, 2011

  Actual Average Record
Temperature  
Mean Temperature 40 °F -  
Max Temperature 60 °F 51 °F 60 °F (2011)
Min Temperature 19 °F 29 °F 19 °F (2011)
Degree Days  
Heating Degree Days 26    
Moisture  
Dew Point 3 °F    
Average Humidity 25    
Maximum Humidity 46    
Minimum Humidity 9    
Precipitation  
Precipitation 0.00 in - - ()
Sea Level Pressure  
Sea Level Pressure 30.39 in    
Wind  
Wind Speed 4 mph (ESE)    
Max Wind Speed 15 mph    
Max Gust Speed -    
Visibility 9 miles    
Events      
Averages and records for this station are not official NWS values.
T = Trace of Precipitation, MM = Missing Value Source: NWS Daily Summary

Daily Weather History Graph

Daily Weather History Graph

Search for Another Location

Airport or City:

Trip Planner

Search our weather history database for the weather conditions in past years. The results will help you decide how hot, cold, wet, or windy it might be!

Date:

Astronomy

Dec. 25, 2011 Rise Set
Actual Time 6:59 AM PST 4:47 PM PST
Civil Twilight 6:31 AM PST 5:15 PM PST
Nautical Twilight 5:59 AM PST 5:47 PM PST
Astronomical Twilight 5:29 AM PST 6:18 PM PST
Moon 7:43 AM PST (12/25) 6:11 PM PST (12/25)
Length of Visible Light 10h 44m
Length of Day
9h 47m
New Moon, 2% of the Moon is Illuminated
Dec 25
New Moon
Dec 31
First Quarter
Jan 8
Full
Jan 16
Last Quarter
Jan 22
New

Hourly Weather History & Observations

Time (PST) Temp. Windchill Dew Point Humidity Pressure Visibility Wind Dir Wind Speed Gust Speed Precip Events Conditions
12:15 AM 28.4 °F - -2.2 °F 27% 30.47 in 10.0 mi Calm Calm - N/A   Clear
12:35 AM 30.2 °F 24.3 °F -2.2 °F 25% 30.47 in 10.0 mi East 5.8 mph - N/A   Clear
12:55 AM 32.0 °F 26.4 °F -2.2 °F 23% 30.47 in 10.0 mi East 5.8 mph - N/A   Clear
1:35 AM 32.0 °F 27.5 °F -2.2 °F 23% 30.46 in 10.0 mi ESE 4.6 mph - N/A   Clear
1:55 AM 26.6 °F - -0.4 °F 31% 30.46 in 10.0 mi Calm Calm - N/A   Clear
2:15 AM 28.4 °F 17.5 °F -0.4 °F 29% 30.44 in 10.0 mi SE 13.8 mph - N/A   Clear
2:35 AM 30.2 °F - -2.2 °F 25% 30.44 in 10.0 mi Calm Calm - N/A   Clear
2:55 AM 26.6 °F - -0.4 °F 31% 30.44 in 10.0 mi Calm Calm - N/A   Clear
3:15 AM 24.8 °F 16.9 °F -0.4 °F 34% 30.44 in 10.0 mi ESE 6.9 mph - N/A   Clear
3:35 AM 23.0 °F - -0.4 °F 36% 30.44 in 10.0 mi Calm Calm - N/A   Clear
4:15 AM 21.2 °F - -0.4 °F 39% 30.43 in 10.0 mi Calm Calm - N/A   Clear
4:35 AM 23.0 °F 18.4 °F -0.4 °F 36% 30.43 in 10.0 mi East 3.5 mph - N/A   Clear
4:55 AM 21.2 °F 16.4 °F -0.4 °F 39% 30.43 in 10.0 mi ESE 3.5 mph - N/A   Clear
5:15 AM 23.0 °F - -0.4 °F 36% 30.43 in 10.0 mi Calm Calm - N/A   Clear
5:35 AM 24.8 °F - -0.4 °F 34% 30.43 in 10.0 mi Calm Calm - N/A   Clear
5:55 AM 19.4 °F - 1.4 °F 46% 30.43 in 10.0 mi Calm Calm - N/A   Clear
6:15 AM 21.2 °F - 1.4 °F 42% 30.43 in 10.0 mi Calm Calm - N/A   Clear
6:35 AM 19.4 °F - 1.4 °F 46% 30.43 in 10.0 mi Calm Calm - N/A   Clear
6:55 AM 19.4 °F - 1.4 °F 46% 30.44 in 10.0 mi Calm Calm - N/A   Clear
7:15 AM 24.8 °F 20.5 °F -0.4 °F 34% 30.44 in 9.0 mi East 3.5 mph - N/A   Clear
7:35 AM 24.8 °F - 1.4 °F 36% 30.44 in 9.0 mi Calm Calm - N/A   Clear
7:55 AM 28.4 °F - 5.0 °F 37% 30.43 in 10.0 mi Calm Calm - N/A   Clear
8:15 AM 35.6 °F 29.9 °F 1.4 °F 24% 30.44 in 9.0 mi SE 6.9 mph - N/A   Clear
8:35 AM 37.4 °F 31.4 °F 3.2 °F 24% 30.44 in 9.0 mi SE 8.1 mph - N/A   Clear
8:55 AM 44.6 °F 40.2 °F 3.2 °F 18% 30.45 in 9.0 mi ESE 8.1 mph - N/A   Clear
9:15 AM 48.2 °F - 3.2 °F 16% 30.44 in 9.0 mi ESE 10.4 mph - N/A   Clear
9:35 AM 51.8 °F - 1.4 °F 13% 30.45 in 8.0 mi ESE 9.2 mph - N/A   Clear
9:55 AM 53.6 °F - -0.4 °F 11% 30.45 in 9.0 mi ESE 10.4 mph - N/A   Clear
10:15 AM 55.4 °F - -0.4 °F 10% 30.45 in 8.0 mi East 8.1 mph - N/A   Clear
10:55 AM 57.2 °F - -0.4 °F 10% 30.43 in 10.0 mi SE 9.2 mph - N/A   Clear
11:15 AM 57.2 °F - -0.4 °F 10% 30.42 in 9.0 mi East 5.8 mph - N/A   Clear
11:35 AM 57.2 °F - -0.4 °F 10% 30.41 in 9.0 mi SE 6.9 mph - N/A   Clear
11:55 AM 57.2 °F - -0.4 °F 10% 30.40 in 10.0 mi ESE 6.9 mph - N/A   Clear
12:15 PM 59.0 °F - -0.4 °F 9% 30.38 in 9.0 mi SE 6.9 mph - N/A   Clear
12:35 PM 59.0 °F - -0.4 °F 9% 30.37 in 8.0 mi SSE 4.6 mph - N/A   Clear
12:55 PM 59.0 °F - -0.4 °F 9% 30.36 in 8.0 mi SSE 3.5 mph - N/A   Clear
1:15 PM 59.0 °F - 1.4 °F 10% 30.35 in 9.0 mi ESE 6.9 mph - N/A   Clear
1:35 PM 60.8 °F - 1.4 °F 9% 30.34 in 9.0 mi ESE 6.9 mph - N/A   Clear
1:55 PM 59.0 °F - 1.4 °F 10% 30.34 in 9.0 mi SE 5.8 mph - N/A   Clear
2:35 PM 59.0 °F - 5.0 °F 12% 30.33 in 9.0 mi NW 11.5 mph - N/A   Clear
2:55 PM 57.2 °F - 3.2 °F 11% 30.34 in 9.0 mi NW 10.4 mph - N/A   Clear
3:15 PM 57.2 °F - 1.4 °F 10% 30.33 in 9.0 mi NW 10.4 mph - N/A   Clear
3:35 PM 53.6 °F - 3.2 °F 13% 30.33 in 9.0 mi NW 15.0 mph - N/A   Clear
3:55 PM 51.8 °F - 3.2 °F 14% 30.33 in 8.0 mi NW 13.8 mph - N/A   Clear
4:15 PM 50.0 °F - 6.8 °F 17% 30.33 in 8.0 mi WNW 6.9 mph - N/A   Clear
4:35 PM 48.2 °F - 6.8 °F 19% 30.33 in 8.0 mi West 8.1 mph - N/A   Clear
4:55 PM 44.6 °F 41.4 °F 10.4 °F 25% 30.34 in 7.0 mi West 5.8 mph - N/A   Clear
5:35 PM 39.2 °F - 14.0 °F 36% 30.34 in 8.0 mi Calm Calm - N/A   Clear
5:55 PM 39.2 °F 35.0 °F 14.0 °F 36% 30.33 in 7.0 mi NNW 5.8 mph - N/A   Clear
6:15 PM 35.6 °F 32.8 °F 10.4 °F 35% 30.33 in 9.0 mi NW 3.5 mph - N/A   Clear
6:35 PM 37.4 °F 34.9 °F 14.0 °F 38% 30.33 in 7.0 mi West 3.5 mph - N/A   Clear
6:55 PM 35.6 °F 32.8 °F 14.0 °F 41% 30.33 in 7.0 mi West 3.5 mph - N/A   Clear
7:15 PM 35.6 °F 32.8 °F 12.2 °F 38% 30.34 in 8.0 mi West 3.5 mph - N/A   Clear
7:35 PM 35.6 °F 32.8 °F 10.4 °F 35% 30.33 in 8.0 mi WNW 3.5 mph - N/A   Clear
7:55 PM 35.6 °F 32.8 °F 10.4 °F 35% 30.33 in 8.0 mi WNW 3.5 mph - N/A   Clear
8:15 PM 33.8 °F 29.6 °F 6.8 °F 32% 30.33 in 10.0 mi NNW 4.6 mph - N/A   Clear
8:35 PM 33.8 °F - 5.0 °F 30% 30.33 in 10.0 mi Calm Calm - N/A   Clear
8:55 PM 35.6 °F - 5.0 °F 28% 30.33 in 10.0 mi Calm Calm - N/A   Clear
9:15 PM 35.6 °F - 5.0 °F 28% 30.33 in 10.0 mi Calm Calm - N/A   Clear
9:35 PM 37.4 °F - 3.2 °F 24% 30.32 in 10.0 mi Calm Calm - N/A   Clear
9:55 PM 37.4 °F - 3.2 °F 24% 30.33 in 10.0 mi Calm Calm - N/A   Clear
10:15 PM 35.6 °F - 3.2 °F 26% 30.33 in 10.0 mi Calm Calm - N/A   Clear
10:35 PM 35.6 °F 30.7 °F 1.4 °F 24% 30.33 in 10.0 mi West 5.8 mph - N/A   Clear
10:55 PM 37.4 °F 33.8 °F 3.2 °F 24% 30.33 in 10.0 mi WNW 4.6 mph - N/A   Clear
11:15 PM 39.2 °F 35.9 °F 1.4 °F 21% 30.33 in 10.0 mi West 4.6 mph - N/A   Clear
11:35 PM 39.2 °F - 3.2 °F 22% 30.32 in 10.0 mi Calm Calm - N/A   Clear
11:55 PM 37.4 °F - 3.2 °F 24% 30.31 in 10.0 mi Calm Calm - N/A   Clear